Location: Hermaringen
(48.5952°N, 10.2585°E)
Time: 08:20:52
(UTC+00:00)

TIMED - Pass Details

Date: 18 November 2025
Orbit: 582 x 584 km, 74.1° (Epoch: 13 December)

Event Time Altitude Azimuth Distance (km) Brightness Sun altitude
Rises 16:28:24 0° 200° (SSW) 2,796 8.5 -8.7°
Reaches altitude 10° 16:30:37 10° 200° (SSW) 1,901 7.6 -9.1°
Maximum altitude 16:34:51 87° 110° (ESE) 593 4.4 -9.7°
Drops below altitude 10° 16:39:08 10° 24° (NNE) 1,918 6.7 -10.4°
Enters shadow 16:40:28 - 24° (NNE) 2,457 7.2 -10.6°
